QPF
0.00 0.00 0.00 0.00 0.00 0.00 0.00 0.00 0.00 0.00 0.00 0.00 0.00 0.00 0.00 0.00 0.00 0.00 0.00 0.00 0.00 0.00 0.00 0.00 0.00 0.00 0.00 0.00 0.02 0.01 0.00 0.00 0.01 0.01 0.05 0.09 0.03 0.01 0.01 0.02 0.04 0.03 0.02
0.00 0.00 0.00 0.00 0.00 0.00 0.00 0.00 0.00 0.00 0.00 0.00 0.00 0.00 0.00 0.00 0.00 0.00 0.00 0.00 0.00 0.00 0.00 0.00 0.00 0.01 0.03 0.03 0.02 0.00 0.00 0.00 0.00 0.03 0.08 0.05 0.01 0.01 0.01 0.01 0.01 0.01 0.00
0.00 0.00 0.00 0.00 0.00 0.00 0.00 0.00 0.00 0.00 0.00 0.00 0.00 0.00 0.00 0.00 0.00 0.00 0.00 0.00 0.00 0.00 0.00 0.00 0.00 0.01 0.02 0.08 0.06 0.00 0.00 0.02 0.00 0.03 0.04 0.01 0.00 0.00 0.00 0.00 0.00 0.00 0.00
0.00 0.00 0.00 0.00 0.00 0.00 0.00 0.00 0.00 0.00 0.00 0.00 0.00 0.00 0.00 0.00 0.00 0.00 0.00 0.00 0.00 0.00 0.00 0.00 0.00 0.01 0.01 0.03 0.08 0.01 0.00 0.00 0.00 0.00 0.00 0.00 0.00 0.00 0.00 0.00 0.00 0.00 0.00
0.00 0.00 0.00 0.00 0.00 0.00 0.00 0.00 0.00 0.00 0.00 0.00 0.00 0.00 0.00 0.00 0.00 0.00 0.00 0.00 0.00 0.00 0.00 0.01 0.01 0.01 0.01 0.01 0.02 0.01 0.00 0.00 0.00 0.00 0.00 0.00 0.00 0.00 0.00 0.00 0.00 0.00 0.00
0.00 0.00 0.00 0.00 0.00 0.00 0.00 0.00 0.00 0.00 0.00 0.00 0.00 0.00 0.00 0.00 0.00 0.00 0.00 0.00 0.00 0.00 0.00 0.01 0.00 0.01 0.00 0.00 0.00 0.00 0.00 0.00 0.00 0.00 0.00 0.00 0.00 0.00 0.00 0.00 0.00 0.00 0.00
0.00 0.00 0.00 0.00 0.00 0.00 0.00 0.00 0.00 0.00 0.00 0.00 0.00 0.00 0.00 0.00 0.00 0.00 0.00 0.00 0.00 0.00 0.00 0.01 0.01 0.02 0.00 0.00 0.00 0.00 0.00 0.00 0.00 0.00 0.00 0.00 0.00 0.00 0.00 0.00 0.00 0.00 0.00
0.00 0.00 0.00 0.00 0.00 0.00 0.00 0.00 0.00 0.00 0.01 0.00 0.00 0.00 0.00 0.00 0.00 0.00 0.00 0.00 0.00 0.00 0.00 0.00 0.00 0.00 0.00 0.00 0.00 0.00 0.00 0.00 0.00 0.00 0.00 0.00 0.00 0.00 0.00 0.00 0.00 0.00 0.00
0.00 0.00 0.00 0.00 0.00 0.00 0.00 0.00 0.00 0.00 0.00 0.00 0.00 0.00 0.00 0.00 0.00 0.00 0.00 0.00 0.00 0.00 0.00 0.00 0.00 0.00 0.00 0.00 0.00 0.00 0.00 0.00 0.00 0.00 0.00 0.00 0.00 0.00 0.00 0.00 0.00 0.00 0.00
0.00 0.00 0.00 0.00 0.00 0.00 0.00 0.00 0.00 0.00 0.00 0.00 0.00 0.00 0.00 0.00 0.00 0.00 0.00 0.00 0.00 0.00 0.00 0.00 0.00 0.00 0.00 0.00 0.00 0.00 0.00 0.00 0.00 0.00 0.00 0.00 0.00 0.00 0.00 0.00 0.00 0.00 0.00
0.00 0.00 0.00 0.00 0.00 0.00 0.00 0.00 0.00 0.00 0.02 0.01 0.00 0.00 0.00 0.00 0.00 0.00 0.00 0.00 0.00 0.00 0.00 0.00 0.00 0.00 0.00 0.00 0.00 0.00 0.00 0.00 0.00 0.00 0.00 0.00 0.00 0.00 0.00 0.00 0.00 0.00 0.00
0.00 0.00 0.00 0.00 0.00 0.00 0.00 0.00 0.00 0.00 0.00 0.00 0.00 0.00 0.00 0.00 0.00 0.00 0.00 0.00 0.00 0.00 0.00 0.00 0.00 0.00 0.00 0.00 0.00 0.00 0.00 0.00 0.00 0.00 0.00 0.00 0.00 0.00 0.00 0.00 0.00 0.00 0.00
0.00 0.00 0.00 0.00 0.00 0.00 0.00 0.00 0.00 0.00 0.00 0.00 0.00 0.00 0.00 0.00 0.00 0.00 0.00 0.00 0.00 0.00 0.00 0.00 0.00 0.00 0.00 0.00 0.00 0.00 0.00 0.00 0.00 0.00 0.00 0.00 0.00 0.00 0.00 0.00 0.00 0.00 0.00
0.00 0.00 0.00 0.00 0.00 0.00 0.00 0.00 0.00 0.00 0.00 0.00 0.00 0.00 0.00 0.00 0.00 0.00 0.00 0.00 0.00 0.00 0.00 0.00 0.00 0.00 0.00 0.00 0.00 0.00 0.00 0.00 0.00 0.00 0.00 0.00 0.00 0.00 0.00 0.00 0.00 0.00 0.00
0.00 0.00 0.00 0.00 0.00 0.00 0.00 0.00 0.00 0.00 0.00 0.00 0.00 0.00 0.00 0.00 0.00 0.00 0.00 0.00 0.00 0.00 0.00 0.00 0.00 0.00 0.00 0.00 0.00 0.00 0.00 0.00 0.00 0.00 0.00 0.00 0.00 0.00 0.00 0.00 0.00 0.00 0.00
0.00 0.00 0.00 0.00 0.00 0.00 0.00 0.00 0.00 0.00 0.00 0.00 0.00 0.00 0.00 0.00 0.00 0.00 0.00 0.00 0.00 0.00 0.00 0.00 0.00 0.00 0.00 0.00 0.00 0.00 0.00 0.00 0.00 0.00 0.00 0.00 0.00 0.00 0.00 0.00 0.00 0.00 0.00
0.00 0.00 0.00 0.00 0.00 0.00 0.00 0.00 0.00 0.00 0.00 0.00 0.00 0.00 0.00 0.00 0.00 0.00 0.00 0.00 0.00 0.00 0.00 0.00 0.00 0.00 0.00 0.00 0.00 0.00 0.00 0.00 0.00 0.00 0.00 0.00 0.00 0.00 0.00 0.00 0.00 0.00 0.00
0.00 0.00 0.00 0.00 0.00 0.00 0.00 0.00 0.00 0.00 0.00 0.00 0.00 0.00 0.00 0.00 0.00 0.00 0.00 0.00 0.00 0.00 0.00 0.00 0.00 0.00 0.00 0.00 0.00 0.00 0.00 0.00 0.00 0.00 0.00 0.00 0.00 0.00 0.00 0.00 0.00 0.00 0.00
0.00 0.00 0.00 0.00 0.00 0.00 0.00 0.00 0.00 0.00 0.00 0.00 0.00 0.00 0.00 0.00 0.00 0.00 0.00 0.00 0.00 0.00 0.00 0.00 0.00 0.00 0.00 0.00 0.00 0.00 0.00 0.00 0.00 0.00 0.00 0.00 0.00 0.00 0.00 0.00 0.00 0.00 0.00
0.00 0.00 0.00 0.00 0.00 0.00 0.00 0.00 0.00 0.00 0.00 0.00 0.00 0.00 0.00 0.00 0.00 0.00 0.00 0.00 0.00 0.00 0.00 0.00 0.00 0.00 0.00 0.00 0.00 0.00 0.00 0.00 0.00 0.00 0.00 0.00 0.00 0.00 0.00 0.00 0.00 0.00 0.00
0.00 0.00 0.00 0.00 0.00 0.00 0.00 0.00 0.00 0.00 0.00 0.00 0.00 0.00 0.00 0.00 0.00 0.00 0.00 0.00 0.00 0.00 0.00 0.00 0.00 0.00 0.00 0.00 0.00 0.00 0.00 0.00 0.00 0.00 0.00 0.00 0.00 0.00 0.00 0.00 0.00 0.00 0.00
0.00 0.00 0.00 0.00 0.00 0.00 0.00 0.00 0.00 0.00 0.00 0.00 0.00 0.00 0.00 0.00 0.00 0.00 0.00 0.00 0.00 0.00 0.00 0.00 0.00 0.00 0.00 0.00 0.00 0.00 0.00 0.00 0.00 0.00 0.00 0.00 0.00 0.00 0.00 0.00 0.00 0.00 0.00
0.03 0.01 0.00 0.00 0.00 0.00 0.00 0.00 0.00 0.00 0.00 0.00 0.00 0.00 0.00 0.00 0.00 0.00 0.00 0.00 0.00 0.00 0.00 0.00 0.00 0.00 0.00 0.00 0.00 0.00 0.00 0.00 0.00 0.00 0.00 0.00 0.00 0.00 0.00 0.00 0.00 0.00 0.00
0.06 0.05 0.02 0.00 0.00 0.00 0.00 0.00 0.00 0.00 0.00 0.00 0.00 0.00 0.00 0.00 0.00 0.00 0.00 0.00 0.00 0.00 0.00 0.00 0.00 0.00 0.00 0.00 0.00 0.00 0.00 0.00 0.00 0.00 0.00 0.00 0.00 0.00 0.00 0.00 0.00 0.00 0.00
0.05 0.05 0.04 0.03 0.02 0.01 0.00 0.00 0.00 0.00 0.00 0.00 0.00 0.00 0.00 0.00 0.00 0.00 0.00 0.00 0.00 0.00 0.00 0.00 0.00 0.00 0.00 0.00 0.00 0.00 0.00 0.00 0.00 0.00 0.00 0.00 0.00 0.00 0.00 0.00 0.00 0.00 0.00
0.03 0.02 0.03 0.04 0.02 0.00 0.00 0.00 0.00 0.00 0.00 0.00 0.00 0.00 0.00 0.00 0.00 0.00 0.00 0.00 0.00 0.00 0.00 0.00 0.00 0.00 0.00 0.00 0.00 0.00 0.00 0.00 0.00 0.00 0.00 0.00 0.00 0.00 0.00 0.00 0.00 0.00 0.00
MSLP
1001.72 1002.29 1002.77 1003.12 1003.34 1003.62 1003.95 1004.20 1004.41 1004.73 1005.03 1005.33 1005.67 1005.88 1006.06 1006.20 1006.50 1006.69 1006.82 1006.91 1007.08 1007.19 1007.22 1007.33 1007.46 1007.49 1007.71 1008.08 1008.13 1008.52 1008.95 1009.24 1010.07 1010.90 1011.05 1011.16 1011.73 1011.83 1012.06 1012.39 1012.66 1013.68 1014.32
1001.77 1002.38 1002.87 1003.23 1003.53 1003.77 1004.00 1004.13 1004.37 1004.77 1005.05 1005.36 1005.64 1005.91 1006.15 1006.16 1006.42 1006.68 1006.83 1006.83 1007.01 1007.07 1007.22 1007.28 1007.30 1007.48 1007.58 1007.82 1008.13 1008.60 1009.04 1009.46 1009.83 1010.77 1011.61 1012.00 1012.60 1013.09 1013.37 1013.52 1013.91 1014.37 1015.26
1001.89 1002.50 1003.08 1003.40 1003.62 1003.84 1004.04 1004.17 1004.45 1004.86 1005.13 1005.42 1005.66 1005.97 1006.07 1006.27 1006.36 1006.50 1006.61 1006.78 1006.92 1006.99 1007.17 1007.28 1007.32 1007.53 1007.77 1007.93 1008.34 1008.79 1009.20 1009.71 1010.29 1010.86 1011.80 1012.54 1013.21 1013.74 1014.20 1014.82 1015.35 1015.60 1016.36
1001.97 1002.57 1003.13 1003.40 1003.56 1003.78 1003.98 1004.25 1004.53 1004.88 1005.12 1005.39 1005.58 1005.90 1006.09 1006.22 1006.38 1006.35 1006.50 1006.74 1006.79 1006.86 1007.09 1007.30 1007.44 1007.55 1007.74 1008.14 1008.67 1008.94 1009.45 1010.10 1010.66 1011.36 1012.28 1012.98 1013.57 1014.42 1014.77 1015.27 1016.14 1016.75 1017.55
1002.03 1002.63 1003.06 1003.34 1003.61 1003.82 1004.11 1004.31 1004.61 1004.91 1004.96 1005.16 1005.57 1005.92 1006.29 1006.41 1006.46 1006.44 1006.68 1006.87 1007.02 1007.14 1007.26 1007.31 1007.54 1007.83 1008.05 1008.22 1008.73 1009.12 1009.66 1010.22 1011.06 1011.71 1012.44 1013.21 1013.87 1014.57 1015.09 1015.75 1016.29 1017.29 1018.24
1002.00 1002.60 1003.03 1003.40 1003.70 1004.01 1004.32 1004.58 1004.78 1004.98 1005.03 1005.36 1005.88 1006.36 1006.69 1006.76 1006.68 1006.63 1006.72 1007.03 1007.17 1007.33 1007.55 1007.63 1007.79 1008.11 1008.41 1008.50 1008.78 1009.05 1009.45 1010.02 1010.88 1011.51 1012.41 1013.09 1013.99 1014.69 1015.49 1016.08 1016.68 1017.55 1018.82
1001.94 1002.48 1002.95 1003.41 1003.82 1004.20 1004.48 1004.74 1004.98 1005.22 1005.51 1006.01 1006.38 1006.68 1007.05 1007.14 1007.06 1006.81 1006.87 1007.16 1007.43 1007.58 1007.80 1007.78 1007.96 1008.24 1008.35 1008.75 1009.01 1009.41 1009.92 1010.40 1010.76 1011.19 1011.97 1013.01 1013.86 1014.66 1015.34 1016.36 1017.23 1017.82 1018.46
1001.90 1002.39 1003.02 1003.41 1003.84 1004.32 1004.74 1004.98 1005.27 1005.56 1005.92 1006.29 1006.64 1006.99 1007.27 1007.46 1007.28 1007.05 1007.17 1007.41 1007.65 1007.82 1007.98 1008.07 1008.24 1008.38 1008.54 1008.86 1009.23 1009.78 1010.37 1010.93 1011.29 1011.77 1012.41 1013.07 1014.00 1014.75 1015.29 1016.27 1017.34 1018.24 1019.26
1001.85 1002.41 1002.94 1003.30 1003.87 1004.41 1004.93 1005.20 1005.47 1005.81 1006.21 1006.56 1006.93 1007.25 1007.47 1007.60 1007.41 1007.32 1007.47 1007.70 1007.85 1008.04 1008.24 1008.39 1008.51 1008.84 1009.00 1009.06 1009.37 1010.03 1010.77 1011.65 1012.02 1012.53 1013.12 1013.76 1014.41 1015.13 1015.59 1016.49 1017.70 1018.41 1019.66
1001.69 1002.22 1002.73 1003.21 1003.83 1004.41 1004.91 1005.31 1005.49 1005.84 1006.21 1006.72 1007.16 1007.34 1007.64 1007.63 1007.50 1007.58 1007.67 1007.89 1008.13 1008.37 1008.69 1009.01 1009.16 1009.43 1009.62 1009.72 1009.92 1010.35 1010.97 1011.87 1012.59 1013.62 1014.41 1014.98 1015.22 1015.86 1016.35 1016.73 1017.32 1018.06 1019.17
1001.35 1002.05 1002.71 1003.24 1003.79 1004.35 1004.97 1005.39 1005.66 1006.07 1006.46 1006.88 1007.29 1007.63 1007.81 1007.87 1007.91 1007.96 1008.02 1008.32 1008.46 1008.75 1009.13 1009.58 1009.93 1010.04 1010.24 1010.44 1010.64 1011.01 1011.50 1012.18 1013.11 1013.77 1014.63 1015.40 1015.93 1016.52 1016.93 1017.21 1017.48 1018.02 1018.53
1001.27 1002.00 1002.68 1003.25 1003.85 1004.44 1005.01 1005.58 1005.92 1006.26 1006.71 1007.20 1007.50 1007.77 1007.92 1008.10 1008.32 1008.42 1008.40 1008.47 1008.80 1009.01 1009.43 1009.87 1010.42 1010.55 1010.78 1011.01 1011.47 1011.89 1012.28 1012.71 1013.48 1014.26 1015.11 1015.81 1016.45 1016.92 1017.22 1017.38 1017.83 1018.14 1018.23
1001.32 1002.01 1002.65 1003.29 1003.84 1004.48 1005.17 1005.73 1006.18 1006.47 1006.80 1007.26 1007.58 1007.92 1008.19 1008.33 1008.52 1008.71 1008.77 1008.87 1009.09 1009.43 1009.68 1010.12 1010.69 1010.97 1011.36 1011.61 1012.07 1012.50 1012.78 1013.17 1013.75 1014.59 1015.38 1016.05 1016.40 1016.92 1017.35 1017.71 1017.99 1018.12 1018.29
1001.36 1002.08 1002.69 1003.31 1004.00 1004.65 1005.28 1005.79 1006.10 1006.48 1006.77 1007.01 1007.39 1007.75 1008.22 1008.52 1008.71 1009.10 1009.44 1009.53 1009.62 1009.97 1010.31 1010.75 1011.11 1011.39 1011.74 1012.23 1012.68 1012.93 1013.27 1013.62 1013.82 1014.44 1015.39 1016.08 1016.70 1017.27 1017.54 1017.62 1017.97 1018.34 1018.78
1001.21 1001.93 1002.61 1003.33 1003.95 1004.75 1005.39 1005.92 1006.02 1006.24 1006.30 1006.67 1006.95 1007.42 1008.13 1008.62 1008.83 1009.08 1009.40 1009.82 1010.05 1010.37 1010.72 1011.10 1011.31 1011.66 1012.18 1012.60 1012.88 1013.17 1013.56 1013.86 1014.26 1014.73 1015.44 1016.21 1016.78 1017.16 1017.45 1017.54 1017.87 1018.53 1018.90
1001.26 1001.90 1002.47 1003.27 1003.98 1004.64 1005.39 1006.11 1006.30 1006.22 1006.43 1006.73 1006.93 1007.28 1007.92 1008.27 1008.66 1009.27 1009.62 1009.89 1010.24 1010.53 1010.93 1011.26 1011.55 1011.91 1012.24 1012.60 1012.91 1013.36 1013.79 1014.10 1014.36 1014.73 1015.24 1015.70 1016.40 1016.90 1017.25 1017.60 1017.85 1018.20 1018.54
1000.80 1001.63 1002.35 1003.05 1003.83 1004.52 1005.22 1005.73 1006.28 1006.80 1006.86 1007.00 1007.09 1007.41 1007.77 1008.16 1008.71 1009.23 1009.80 1010.08 1010.54 1010.70 1011.11 1011.38 1011.55 1011.84 1012.18 1012.55 1012.87 1013.22 1013.63 1014.00 1014.30 1014.71 1015.20 1015.65 1016.09 1016.56 1016.95 1017.22 1017.46 1017.76 1018.14
1000.27 1000.97 1001.83 1002.60 1003.41 1004.18 1004.70 1005.09 1005.61 1006.34 1006.80 1007.32 1007.58 1007.74 1007.89 1008.18 1008.71 1009.30 1010.01 1010.51 1011.21 1011.15 1011.18 1011.38 1011.52 1011.80 1012.12 1012.44 1012.75 1013.03 1013.45 1014.00 1014.32 1014.66 1015.02 1015.35 1015.69 1016.04 1016.49 1016.80 1017.05 1017.17 1017.44
1000.06 1000.89 1001.50 1002.23 1002.91 1003.51 1004.15 1004.62 1005.04 1005.67 1006.23 1006.82 1007.65 1008.13 1008.48 1008.83 1009.31 1009.88 1010.12 1010.16 1010.58 1010.83 1010.97 1011.28 1011.53 1011.76 1011.92 1012.18 1012.54 1012.89 1013.22 1013.55 1013.87 1014.29 1014.62 1014.90 1015.12 1015.34 1015.50 1015.93 1016.40 1016.71 1017.11
999.74 1000.13 1001.10 1001.92 1002.74 1003.40 1003.96 1004.49 1005.05 1005.46 1005.97 1006.57 1007.15 1007.78 1008.49 1008.89 1009.46 1009.87 1010.09 1009.98 1010.09 1010.30 1010.55 1010.85 1011.14 1011.37 1011.60 1011.80 1012.12 1012.42 1012.80 1013.22 1013.54 1013.72 1013.92 1014.16 1014.50 1014.86 1015.20 1015.50 1015.78 1016.03 1016.17
999.46 1000.25 1000.80 1001.75 1002.44 1003.02 1003.54 1004.09 1004.56 1005.16 1005.68 1006.22 1006.65 1007.25 1007.45 1008.11 1008.60 1009.02 1009.36 1009.54 1009.55 1009.71 1009.94 1010.22 1010.49 1010.78 1011.09 1011.42 1011.75 1012.15 1012.50 1012.74 1013.01 1013.30 1013.62 1013.81 1014.04 1014.32 1014.30 1014.44 1014.77 1015.06 1015.28
999.31 1000.10 1000.74 1001.31 1002.03 1002.76 1003.30 1003.68 1004.21 1004.67 1005.22 1005.77 1006.29 1007.07 1007.55 1007.88 1007.94 1008.08 1008.31 1008.56 1008.72 1008.90 1009.12 1009.44 1009.77 1010.01 1010.26 1010.51 1010.74 1011.07 1011.41 1011.71 1011.98 1012.26 1012.60 1012.85 1013.05 1013.17 1013.28 1013.50 1013.75 1014.01 1014.28
998.62 999.55 1000.43 1001.27 1001.71 1002.14 1002.82 1003.26 1003.72 1004.14 1004.57 1005.00 1005.52 1006.24 1007.01 1007.17 1007.08 1007.16 1007.20 1007.27 1007.65 1007.97 1008.24 1008.59 1008.88 1009.09 1009.22 1009.37 1009.47 1009.84 1010.14 1010.25 1010.40 1010.87 1011.32 1011.56 1011.73 1011.91 1012.11 1012.39 1012.62 1012.88 1013.17
998.50 999.28 999.91 1000.57 1001.15 1001.99 1002.66 1002.92 1003.10 1003.34 1003.68 1004.06 1004.55 1005.07 1005.59 1005.83 1005.90 1005.84 1005.93 1006.25 1006.60 1006.87 1007.22 1007.48 1007.67 1007.81 1008.01 1008.19 1008.30 1008.46 1008.59 1008.80 1009.15 1009.42 1009.86 1010.20 1010.39 1010.56 1010.73 1010.92 1011.13 1011.31 1011.59
999.08 999.44 999.97 1000.47 1000.82 1001.47 1002.05 1002.32 1002.60 1002.75 1002.98 1003.26 1003.65 1004.02 1004.26 1004.56 1004.83 1004.83 1004.88 1005.21 1005.49 1005.82 1005.99 1006.20 1006.44 1006.60 1006.73 1006.86 1006.98 1007.09 1007.24 1007.58 1007.78 1008.03 1008.46 1008.90 1009.09 1009.18 1009.34 1009.46 1009.72 1009.94 1010.19
1001.66 1000.98 1000.92 1001.01 1001.40 1001.71 1002.01 1002.23 1002.35 1002.56 1002.67 1002.69 1002.79 1003.01 1003.24 1003.47 1003.57 1003.75 1003.85 1004.12 1004.36 1004.55 1004.69 1004.89 1004.98 1005.07 1005.19 1005.18 1005.20 1005.32 1005.67 1005.95 1006.32 1006.69 1006.89 1007.29 1007.49 1007.65 1007.89 1008.08 1008.33 1008.65 1008.96
Thickness
5707 5701 5695 5691 5689 5685 5680 5675 5672 5668 5663 5657 5653 5650 5646 5644 5640 5636 5633 5630 5627 5625 5624 5622 5621 5621 5620 5619 5620 5618 5617 5619 5616 5614 5617 5620 5619 5621 5623 5628 5631 5626 5629
5703 5697 5691 5688 5684 5680 5676 5673 5669 5665 5660 5655 5651 5648 5645 5644 5639 5634 5632 5630 5626 5623 5621 5621 5621 5621 5621 5620 5619 5617 5616 5617 5618 5614 5613 5614 5614 5614 5616 5621 5622 5620 5620
5699 5693 5686 5683 5679 5675 5671 5669 5666 5661 5657 5652 5649 5647 5646 5643 5639 5636 5632 5629 5626 5624 5621 5619 5619 5617 5618 5618 5616 5614 5615 5616 5615 5614 5611 5609 5609 5610 5610 5609 5609 5611 5609
5695 5688 5683 5679 5676 5672 5669 5666 5663 5658 5654 5650 5648 5647 5646 5643 5640 5638 5634 5631 5629 5627 5623 5620 5617 5616 5616 5616 5614 5615 5614 5612 5613 5611 5607 5606 5607 5604 5605 5606 5605 5603 5601
5692 5686 5680 5676 5672 5668 5665 5662 5659 5655 5653 5650 5647 5646 5643 5642 5641 5639 5634 5631 5630 5626 5623 5621 5617 5614 5614 5616 5615 5614 5614 5613 5610 5610 5609 5608 5607 5605 5604 5604 5604 5600 5595
5689 5683 5678 5673 5669 5665 5661 5658 5654 5652 5651 5646 5643 5641 5639 5638 5637 5638 5635 5632 5629 5626 5621 5620 5618 5614 5612 5614 5616 5617 5617 5616 5612 5613 5610 5609 5607 5604 5601 5601 5602 5600 5593
5688 5682 5677 5673 5667 5661 5658 5654 5650 5647 5644 5639 5638 5637 5635 5634 5633 5636 5635 5632 5629 5625 5621 5621 5619 5616 5616 5614 5614 5614 5613 5614 5616 5614 5611 5608 5606 5603 5602 5598 5596 5598 5597
5686 5681 5675 5671 5666 5659 5654 5650 5646 5642 5640 5636 5634 5633 5633 5632 5633 5635 5634 5632 5629 5625 5623 5621 5619 5618 5617 5616 5615 5614 5613 5612 5612 5613 5611 5609 5604 5603 5602 5599 5595 5592 5588
5685 5680 5675 5671 5664 5658 5652 5647 5642 5637 5634 5632 5630 5630 5631 5632 5632 5633 5635 5632 5630 5627 5623 5622 5621 5618 5614 5616 5617 5614 5612 5608 5609 5608 5606 5605 5605 5603 5602 5599 5594 5594 5587
5686 5681 5676 5671 5664 5658 5652 5646 5641 5636 5632 5628 5627 5628 5628 5632 5632 5633 5635 5632 5629 5627 5623 5620 5619 5618 5616 5617 5618 5616 5613 5609 5607 5603 5600 5599 5600 5599 5599 5598 5599 5598 5592
5689 5682 5676 5671 5665 5658 5650 5644 5639 5635 5630 5627 5625 5625 5628 5630 5631 5630 5631 5631 5629 5627 5624 5621 5618 5616 5616 5616 5618 5616 5613 5612 5607 5605 5602 5599 5597 5596 5597 5598 5599 5598 5597
5689 5683 5676 5670 5666 5658 5650 5643 5639 5634 5630 5626 5626 5626 5628 5629 5625 5626 5627 5628 5627 5627 5624 5621 5616 5615 5616 5615 5614 5610 5609 5610 5608 5604 5602 5599 5598 5598 5599 5600 5601 5601 5603
5688 5682 5676 5671 5666 5659 5650 5644 5639 5635 5631 5628 5627 5627 5628 5628 5627 5624 5624 5624 5623 5623 5623 5619 5615 5613 5612 5612 5610 5609 5611 5611 5610 5608 5605 5602 5602 5600 5599 5600 5602 5603 5604
5687 5681 5677 5672 5665 5660 5654 5648 5643 5638 5635 5634 5631 5630 5630 5629 5629 5627 5624 5622 5619 5618 5615 5615 5615 5615 5615 5612 5611 5612 5612 5612 5614 5613 5609 5604 5602 5601 5603 5606 5605 5604 5603
5688 5684 5680 5673 5668 5662 5658 5654 5651 5646 5644 5639 5638 5635 5632 5631 5631 5630 5628 5624 5622 5619 5618 5617 5617 5617 5616 5615 5615 5615 5615 5616 5616 5614 5612 5608 5607 5606 5607 5608 5608 5604 5603
5687 5685 5682 5675 5670 5666 5661 5655 5647 5648 5646 5644 5640 5640 5638 5637 5633 5631 5630 5628 5624 5623 5622 5621 5620 5620 5619 5619 5619 5618 5617 5617 5618 5619 5618 5617 5615 5613 5612 5610 5609 5608 5605
5692 5688 5684 5679 5674 5669 5664 5662 5659 5652 5648 5648 5648 5647 5646 5644 5638 5635 5632 5630 5627 5628 5627 5628 5629 5627 5625 5624 5624 5624 5623 5623 5623 5623 5622 5621 5619 5617 5614 5614 5613 5611 5609
5697 5691 5690 5685 5679 5674 5671 5669 5666 5662 5659 5657 5650 5651 5649 5648 5644 5639 5634 5632 5630 5631 5632 5633 5633 5632 5631 5630 5630 5630 5630 5627 5627 5626 5625 5624 5623 5622 5618 5618 5616 5616 5613
5698 5694 5692 5689 5685 5682 5677 5674 5673 5669 5668 5665 5656 5653 5649 5647 5644 5640 5639 5644 5640 5638 5637 5635 5635 5636 5636 5635 5634 5634 5634 5633 5632 5630 5629 5628 5627 5626 5626 5623 5619 5611 5611
5701 5699 5694 5690 5685 5682 5680 5677 5674 5673 5672 5670 5667 5664 5654 5654 5652 5648 5645 5648 5647 5645 5644 5642 5641 5641 5641 5641 5640 5639 5638 5636 5635 5634 5634 5633 5630 5628 5627 5624 5622 5620 5617
5703 5696 5693 5689 5687 5685 5683 5681 5679 5676 5675 5673 5673 5669 5663 5666 5662 5658 5654 5652 5653 5653 5651 5650 5649 5647 5646 5645 5643 5641 5640 5639 5637 5636 5634 5633 5632 5630 5630 5629 5626 5623 5621
5701 5696 5692 5689 5688 5685 5683 5683 5680 5678 5676 5675 5675 5670 5661 5668 5668 5665 5663 5661 5660 5660 5659 5657 5654 5653 5652 5650 5649 5647 5645 5644 5642 5641 5638 5637 5635 5634 5633 5632 5629 5626 5622
5705 5700 5693 5684 5685 5683 5681 5683 5682 5680 5678 5678 5678 5674 5665 5669 5671 5670 5670 5670 5668 5666 5665 5663 5661 5660 5660 5658 5657 5655 5653 5652 5651 5648 5644 5643 5642 5641 5638 5635 5632 5630 5626
5704 5700 5696 5691 5687 5681 5678 5680 5682 5679 5682 5681 5680 5679 5675 5675 5676 5677 5677 5676 5674 5673 5671 5670 5669 5668 5666 5664 5663 5662 5661 5659 5656 5654 5652 5649 5647 5644 5643 5642 5640 5638 5634
5693 5694 5691 5688 5689 5684 5680 5680 5681 5682 5683 5683 5682 5681 5680 5678 5677 5678 5679 5678 5677 5676 5676 5675 5674 5673 5671 5670 5669 5668 5666 5664 5662 5659 5655 5653 5651 5649 5647 5645 5643 5639 5636
5663 5672 5676 5680 5680 5680 5679 5679 5679 5679 5681 5683 5684 5683 5682 5680 5681 5681 5682 5681 5680 5679 5679 5678 5679 5679 5678 5677 5678 5678 5675 5673 5669 5665 5660 5657 5655 5654 5650 5648 5645 5642 5638